GFSNIL_prec_precacc24_270.txt.gz
Total_Precipitation_Accumulation
0.03 0.03 0.05 0.04 0.02 0.02 0.02 0.01 0.02 0.01 0.02 0.06 0.13 0.20 0.24 0.28 0.30 0.30 0.26 0.23 0.24 0.24
0.05 0.06 0.06 0.04 0.03 0.02 0.02 0.01 0.02 0.04 0.04 0.03 0.06 0.14 0.19 0.24 0.24 0.30 0.39 0.43 0.41 0.38
0.04 0.06 0.07 0.06 0.05 0.04 0.05 0.09 0.09 0.08 0.07 0.10 0.11 0.11 0.13 0.14 0.19 0.22 0.23 0.30 0.31 0.31
0.02 0.05 0.08 0.11 0.10 0.08 0.06 0.07 0.09 0.11 0.12 0.17 0.23 0.29 0.30 0.29 0.29 0.32 0.31 0.31 0.32 0.29
0.01 0.02 0.07 0.12 0.17 0.18 0.19 0.16 0.16 0.22 0.29 0.32 0.36 0.40 0.39 0.42 0.48 0.55 0.61 0.62 0.61 0.56
0.00 0.01 0.05 0.09 0.15 0.18 0.15 0.24 0.45 0.73 0.70 0.60 0.56 0.71 0.78 0.63 0.49 0.49 0.56 0.63 0.65 0.64
0.00 0.01 0.01 0.03 0.05 0.06 0.06 0.06 0.07 0.11 0.19 0.34 0.54 0.73 0.84 0.93 0.97 0.84 0.64 0.67 0.79 0.80
0.00 0.01 0.00 0.00 0.00 0.01 0.01 0.02 0.02 0.04 0.05 0.09 0.16 0.26 0.37 0.50 0.67 0.87 1.05 1.09 1.01 0.87
0.00 0.01 0.02 0.02 0.02 0.01 0.00 0.00 0.00 0.01 0.01 0.01 0.03 0.06 0.13 0.19 0.24 0.31 0.41 0.42 0.47 0.67
0.03 0.03 0.03 0.04 0.04 0.03 0.02 0.01 0.01 0.00 0.01 0.01 0.01 0.02 0.03 0.02 0.03 0.05 0.09 0.13 0.18 0.23
0.00 0.01 0.03 0.04 0.05 0.05 0.04 0.02 0.01 0.00 0.01 0.01 0.01 0.02 0.03 0.02 0.01 0.01 0.01 0.02 0.03 0.05
0.00 0.00 0.00 0.00 0.02 0.03 0.03 0.03 0.02 0.01 0.00 0.00 0.01 0.01 0.03 0.03 0.02 0.01 0.01 0.01 0.01 0.02
0.00 0.00 0.00 0.00 0.00 0.00 0.00 0.01 0.01 0.02 0.01 0.01 0.00 0.00 0.01 0.02 0.02 0.01 0.01 0.00 0.01 0.02
0.00 0.00 0.00 0.00 0.00 0.00 0.00 0.00 0.00 0.00 0.01 0.01 0.01 0.01 0.01 0.01 0.01 0.01 0.00 0.00 0.00 0.01

GFSNIL_prec_precacc24_273.txt.gz
Total_Precipitation_Accumulation
0.03 0.03 0.05 0.04 0.02 0.02 0.02 0.01 0.01 0.01 0.02 0.06 0.13 0.20 0.24 0.28 0.30 0.30 0.26 0.23 0.24 0.24
0.05 0.06 0.06 0.04 0.03 0.02 0.02 0.01 0.01 0.02 0.03 0.03 0.06 0.14 0.19 0.24 0.24 0.30 0.39 0.43 0.41 0.38
0.01 0.04 0.07 0.06 0.05 0.04 0.03 0.03 0.03 0.04 0.06 0.10 0.11 0.11 0.13 0.14 0.19 0.22 0.23 0.30 0.31 0.31
0.00 0.00 0.03 0.06 0.07 0.06 0.03 0.04 0.05 0.05 0.07 0.12 0.19 0.26 0.27 0.26 0.27 0.31 0.30 0.30 0.31 0.29
0.00 0.01 0.02 0.03 0.05 0.05 0.05 0.06 0.09 0.14 0.16 0.19 0.24 0.27 0.26 0.30 0.35 0.44 0.52 0.55 0.58 0.54
0.00 0.00 0.01 0.02 0.03 0.03 0.02 0.04 0.06 0.06 0.10 0.17 0.30 0.44 0.50 0.47 0.42 0.45 0.52 0.60 0.63 0.62
0.00 0.00 0.00 0.01 0.01 0.02 0.02 0.03 0.04 0.04 0.05 0.08 0.23 0.40 0.47 0.52 0.63 0.67 0.59 0.63 0.76 0.78
0.00 0.01 0.00 0.00 0.00 0.00 0.00 0.01 0.02 0.03 0.03 0.04 0.06 0.12 0.23 0.35 0.51 0.71 0.92 0.99 0.96 0.83
0.00 0.01 0.02 0.02 0.02 0.01 0.00 0.00 0.00 0.01 0.01 0.01 0.02 0.03 0.06 0.10 0.16 0.25 0.36 0.39 0.45 0.66
0.00 0.02 0.03 0.04 0.04 0.03 0.02 0.01 0.01 0.00 0.01 0.01 0.01 0.02 0.02 0.02 0.03 0.05 0.08 0.12 0.18 0.23
0.00 0.00 0.01 0.03 0.04 0.05 0.04 0.02 0.01 0.00 0.01 0.01 0.01 0.02 0.03 0.02 0.01 0.01 0.01 0.02 0.03 0.05
0.00 0.00 0.00 0.00 0.01 0.02 0.03 0.03 0.02 0.01 0.00 0.00 0.01 0.01 0.03 0.03 0.02 0.01 0.01 0.01 0.01 0.02
0.00 0.00 0.00 0.00 0.00 0.00 0.00 0.01 0.01 0.02 0.01 0.01 0.00 0.00 0.01 0.02 0.02 0.01 0.01 0.00 0.01 0.02
0.00 0.00 0.00 0.00 0.00 0.00 0.00 0.00 0.00 0.00 0.01 0.01 0.01 0.01 0.01 0.01 0.01 0.01 0.00 0.00 0.00 0.01

GFSNIL_prec_precacc24_276.txt.gz
Total_Precipitation_Accumulation
0.00 0.01 0.04 0.03 0.02 0.02 0.02 0.01 0.00 0.01 0.02 0.06 0.13 0.20 0.24 0.28 0.30 0.30 0.26 0.23 0.24 0.24
0.00 0.00 0.01 0.02 0.02 0.01 0.02 0.01 0.01 0.02 0.02 0.02 0.06 0.14 0.19 0.24 0.24 0.30 0.39 0.43 0.41 0.38
0.00 0.00 0.00 0.01 0.01 0.01 0.01 0.02 0.03 0.03 0.05 0.09 0.10 0.10 0.13 0.14 0.19 0.22 0.23 0.30 0.31 0.31
0.00 0.00 0.00 0.00 0.01 0.01 0.01 0.02 0.03 0.04 0.06 0.08 0.12 0.19 0.26 0.26 0.27 0.31 0.30 0.30 0.31 0.29
0.00 0.00 0.00 0.00 0.00 0.01 0.03 0.02 0.02 0.04 0.08 0.13 0.16 0.17 0.22 0.29 0.35 0.43 0.50 0.51 0.54 0.51
0.00 0.00 0.00 0.00 0.00 0.00 0.01 0.03 0.03 0.01 0.02 0.04 0.11 0.31 0.44 0.44 0.38 0.42 0.51 0.58 0.61 0.60
0.00 0.00 0.00 0.00 0.00 0.00 0.00 0.01 0.02 0.02 0.03 0.03 0.05 0.10 0.15 0.26 0.42 0.49 0.44 0.53 0.69 0.73
0.00 0.00 0.00 0.00 0.00 0.00 0.00 0.00 0.00 0.01 0.01 0.02 0.03 0.06 0.11 0.13 0.12 0.26 0.54 0.72 0.78 0.71
0.00 0.00 0.00 0.00 0.01 0.01 0.00 0.00 0.00 0.01 0.01 0.00 0.01 0.02 0.04 0.06 0.09 0.11 0.17 0.21 0.30 0.57
0.00 0.00 0.00 0.00 0.00 0.01 0.02 0.01 0.01 0.00 0.01 0.01 0.01 0.02 0.02 0.02 0.02 0.04 0.06 0.08 0.11 0.16
0.00 0.00 0.00 0.00 0.00 0.00 0.00 0.01 0.01 0.00 0.01 0.01 0.01 0.02 0.03 0.02 0.01 0.01 0.01 0.02 0.03 0.05
0.00 0.00 0.00 0.00 0.00 0.00 0.00 0.00 0.00 0.00 0.00 0.00 0.01 0.01 0.03 0.03 0.02 0.01 0.01 0.01 0.01 0.02
0.00 0.00 0.00 0.00 0.00 0.00 0.00 0.00 0.00 0.00 0.00 0.00 0.00 0.00 0.01 0.02 0.02 0.01 0.01 0.00 0.01 0.02
0.00 0.00 0.00 0.00 0.00 0.00 0.00 0.00 0.00 0.00 0.00 0.00 0.00 0.00 0.01 0.01 0.01 0.01 0.00 0.00 0.00 0.01

GFSNIL_prec_precacc24_279.txt.gz
Total_Precipitation_Accumulation
0.00 0.00 0.00 0.00 0.00 0.01 0.01 0.00 0.00 0.00 0.02 0.06 0.13 0.20 0.24 0.28 0.30 0.30 0.26 0.23 0.24 0.24
0.00 0.00 0.00 0.00 0.00 0.00 0.01 0.00 0.00 0.01 0.01 0.02 0.06 0.14 0.18 0.23 0.24 0.30 0.39 0.43 0.41 0.38
0.00 0.00 0.00 0.00 0.00 0.00 0.00 0.00 0.00 0.01 0.03 0.06 0.08 0.09 0.13 0.14 0.19 0.22 0.23 0.30 0.31 0.31
0.00 0.00 0.00 0.00 0.00 0.00 0.00 0.00 0.00 0.00 0.00 0.01 0.03 0.11 0.20 0.25 0.26 0.31 0.30 0.30 0.31 0.29
0.00 0.00 0.00 0.00 0.00 0.00 0.00 0.00 0.00 0.00 0.00 0.00 0.00 0.01 0.05 0.15 0.27 0.40 0.48 0.50 0.54 0.51
0.00 0.00 0.00 0.00 0.00 0.00 0.00 0.00 0.00 0.00 0.00 0.00 0.00 0.00 0.02 0.09 0.13 0.26 0.45 0.53 0.58 0.59
0.00 0.00 0.00 0.00 0.00 0.00 0.00 0.00 0.00 0.00 0.00 0.00 0.00 0.00 0.00 0.01 0.03 0.08 0.14 0.36 0.57 0.64
0.00 0.00 0.00 0.00 0.00 0.00 0.00 0.00 0.00 0.00 0.00 0.01 0.01 0.01 0.01 0.02 0.02 0.01 0.04 0.27 0.39 0.40
0.00 0.00 0.00 0.00 0.00 0.00 0.00 0.00 0.00 0.00 0.00 0.00 0.01 0.01 0.02 0.03 0.03 0.06 0.07 0.05 0.07 0.12
0.00 0.00 0.00 0.00 0.00 0.00 0.00 0.00 0.00 0.00 0.00 0.00 0.00 0.01 0.02 0.01 0.01 0.02 0.04 0.05 0.06 0.06
0.00 0.00 0.00 0.00 0.00 0.00 0.00 0.00 0.00 0.00 0.00 0.00 0.00 0.00 0.01 0.01 0.01 0.01 0.01 0.02 0.03 0.03
0.00 0.00 0.00 0.00 0.00 0.00 0.00 0.00 0.00 0.00 0.00 0.00 0.00 0.00 0.01 0.01 0.00 0.00 0.00 0.01 0.01 0.02
0.00 0.00 0.00 0.00 0.00 0.00 0.00 0.00 0.00 0.00 0.00 0.00 0.00 0.00 0.01 0.01 0.01 0.00 0.00 0.00 0.00 0.02
0.00 0.00 0.00 0.00 0.00 0.00 0.00 0.00 0.00 0.00 0.00 0.00 0.00 0.00 0.01 0.01 0.01 0.01 0.00 0.00 0.00 0.00

GFSNIL_prec_precacc24_282.txt.gz
Total_Precipitation_Accumulation
0.00 0.00 0.00 0.00 0.00 0.00 0.00 0.00 0.00 0.00 0.00 0.01 0.06 0.14 0.17 0.21 0.28 0.29 0.26 0.23 0.24 0.24
0.00 0.00 0.00 0.00 0.00 0.00 0.00 0.00 0.00 0.00 0.00 0.00 0.00 0.02 0.09 0.15 0.16 0.23 0.35 0.42 0.41 0.38
0.00 0.00 0.00 0.00 0.00 0.00 0.00 0.00 0.00 0.00 0.00 0.00 0.00 0.00 0.01 0.05 0.11 0.13 0.17 0.26 0.29 0.31
0.00 0.00 0.00 0.00 0.00 0.00 0.00 0.00 0.00 0.00 0.00 0.00 0.00 0.00 0.01 0.04 0.06 0.11 0.16 0.21 0.25 0.25
0.00 0.00 0.00 0.00 0.00 0.00 0.00 0.00 0.00 0.00 0.00 0.00 0.00 0.00 0.00 0.02 0.06 0.07 0.08 0.10 0.22 0.35
0.00 0.00 0.00 0.00 0.00 0.00 0.00 0.00 0.00 0.00 0.00 0.00 0.00 0.00 0.00 0.00 0.00 0.01 0.01 0.02 0.07 0.13
0.00 0.00 0.00 0.00 0.00 0.00 0.00 0.00 0.00 0.00 0.00 0.00 0.00 0.00 0.00 0.00 0.00 0.00 0.00 0.00 0.00 0.01
0.00 0.00 0.00 0.00 0.00 0.00 0.00 0.00 0.00 0.00 0.00 0.00 0.00 0.00 0.00 0.00 0.00 0.00 0.00 0.00 0.00 0.01
0.00 0.00 0.00 0.00 0.00 0.00 0.00 0.00 0.00 0.00 0.00 0.00 0.00 0.00 0.00 0.00 0.00 0.00 0.00 0.00 0.00 0.00
0.00 0.00 0.00 0.00 0.00 0.00 0.00 0.00 0.00 0.00 0.00 0.00 0.00 0.00 0.00 0.00 0.00 0.00 0.00 0.01 0.01 0.01
0.00 0.00 0.00 0.00 0.00 0.00 0.00 0.00 0.00 0.00 0.00 0.00 0.00 0.00 0.00 0.00 0.00 0.00 0.00 0.00 0.01 0.01
0.00 0.00 0.00 0.00 0.00 0.00 0.00 0.00 0.00 0.00 0.00 0.00 0.00 0.00 0.00 0.00 0.00 0.00 0.00 0.00 0.00 0.01
0.00 0.00 0.00 0.00 0.00 0.00 0.00 0.00 0.00 0.00 0.00 0.00 0.00 0.00 0.01 0.01 0.00 0.00 0.00 0.00 0.00 0.01
0.00 0.00 0.00 0.00 0.00 0.00 0.00 0.00 0.00 0.00 0.00 0.00 0.00 0.00 0.01 0.01 0.01 0.00 0.00 0.00 0.00 0.00